Temp
84 87 89 89 87 83 83 82 80 80 80 76 77 75 76 76 78 78 78 80 78 78 75 75 74 74 72 73 72 72 71 70 72 70 70 71 71 72 71 71 72 72 75
84 86 87 86 85 83 82 80 80 79 79 80 81 77 76 77 77 78 78 80 79 77 75 74 75 75 73 73 72 72 70 69 71 68 68 65 67 70 71 71 72 71 74
83 84 86 86 86 84 81 81 79 80 79 80 80 76 77 75 76 75 74 78 79 78 76 76 75 74 74 72 73 71 71 69 70 71 68 65 64 67 69 71 72 72 71
87 85 86 85 87 85 85 81 81 80 79 79 79 77 78 72 74 75 75 76 77 76 76 75 74 73 72 72 73 72 71 71 69 69 71 71 69 65 64 68 70 71 72
88 87 87 88 88 89 86 82 81 81 83 82 78 78 75 75 75 75 75 76 75 75 76 74 73 73 73 72 72 72 72 71 70 69 68 69 70 69 67 64 67 70 71
89 89 90 90 89 90 88 85 81 80 82 81 81 76 75 75 73 73 73 76 76 74 74 74 74 74 73 72 73 73 73 72 72 71 70 69 69 68 68 65 67 69 69
89 88 88 88 89 89 89 85 81 80 81 81 80 80 77 75 73 73 73 74 73 72 73 73 72 72 72 72 71 71 71 73 72 72 71 71 71 71 70 68 67 67 68
90 90 90 90 90 90 89 88 83 81 81 81 81 81 81 79 79 73 72 73 75 72 74 73 72 71 71 72 72 71 72 73 74 72 72 71 72 72 71 69 67 66 67
92 92 91 91 90 90 88 89 84 82 82 82 81 80 79 78 76 76 74 74 74 76 73 72 71 72 73 73 71 71 72 72 72 72 72 72 72 73 72 71 69 68 65
91 92 92 90 90 89 86 89 85 83 83 83 82 81 79 77 76 75 74 74 74 76 72 74 73 73 72 72 72 72 72 72 72 73 72 73 73 73 72 71 71 69 68
88 93 89 88 91 90 88 85 84 83 83 83 83 79 79 77 76 76 75 75 75 75 74 73 72 72 72 72 72 72 72 72 72 72 72 72 72 71 71 72 71 70 68
88 88 87 88 89 86 87 84 83 83 83 81 80 80 79 77 77 75 75 76 75 75 74 74 72 72 73 73 72 72 73 72 71 72 72 72 73 72 73 72 71 71 70
86 86 84 83 83 82 82 83 81 82 83 81 80 78 77 78 79 78 76 76 75 75 75 74 73 73 73 73 73 73 73 73 72 72 72 72 71 71 71 72 70 71 70
85 83 84 82 81 80 80 80 81 82 82 82 80 77 77 76 77 80 78 76 75 75 73 74 73 74 74 74 74 74 73 72 72 72 72 72 72 71 71 71 68 68 68
85 82 81 81 79 78 78 79 80 81 80 80 79 77 78 77 77 76 77 77 76 75 74 74 74 74 75 77 74 74 73 71 70 70 70 71 71 71 70 71 69 67 67
86 85 84 82 81 81 78 79 79 79 79 78 78 78 78 77 76 76 76 75 75 75 75 74 74 74 79 75 73 74 72 72 69 68 67 70 70 69 69 70 70 70 68
83 82 84 84 82 81 80 78 79 79 78 77 77 76 76 76 75 77 76 74 74 75 74 74 75 74 74 72 70 74 72 71 69 68 67 69 70 69 68 68 69 69 69
82 83 83 82 83 83 82 81 80 78 77 76 76 76 75 75 76 75 74 74 74 74 74 74 74 74 74 70 69 73 72 71 70 70 69 67 66 67 66 66 66 68 68
81 83 83 83 82 83 82 82 79 78 77 76 76 76 75 74 75 74 74 74 74 74 74 74 74 74 72 67 68 71 71 71 71 71 71 69 67 66 66 66 65 66 69
82 82 83 82 83 81 83 81 79 78 77 77 76 77 76 75 75 75 74 75 75 74 73 73 73 71 71 64 65 68 70 70 71 71 71 69 69 64 63 66 65 65 65
81 81 81 80 79 81 83 81 82 81 82 80 78 77 76 76 75 75 75 75 73 72 72 72 72 72 69 67 63 63 69 69 70 70 70 71 65 62 61 64 67 67 68
80 80 78 76 77 78 78 75 76 78 78 78 76 76 76 77 77 75 73 68 68 68 69 70 70 71 72 65 62 62 64 67 68 69 71 71 63 59 59 62 63 64 66
77 77 76 73 73 74 74 72 73 74 76 78 77 77 76 75 73 70 67 67 68 67 66 67 69 69 70 70 62 61 62 63 65 66 66 61 60 59 60 62 62 63 64
76 77 74 72 71 73 73 72 73 74 73 74 73 73 69 67 66 67 67 66 67 64 65 67 67 67 68 69 67 64 63 63 62 61 62 62 60 61 62 60 61 62 62
74 74 72 71 71 71 71 72 72 72 71 71 72 71 69 66 64 65 65 65 64 63 64 65 65 64 64 65 62 63 64 64 62 63 61 59 59 60 60 60 60 60 61
72 72 72 72 71 71 71 71 71 71 69 69 69 67 68 68 67 66 66 57 57 55 54 56 62 65 58 53 52 50 51 54 56 62 61 59 60 60 61 61 62 62 64
MSLP
1004.61 1004.82 1005.05 1005.53 1006.18 1006.92 1007.84 1008.34 1008.86 1009.57 1010.28 1011.02 1011.59 1012.06 1012.29 1012.42 1012.60 1012.84 1012.92 1013.46 1014.08 1014.59 1015.04 1015.40 1015.70 1016.18 1016.71 1017.00 1017.59 1018.04 1018.42 1018.64 1018.67 1019.17 1019.42 1019.37 1019.39 1019.35 1019.70 1019.70 1019.97 1020.25 1020.39
1004.29 1004.60 1004.85 1005.30 1005.92 1006.64 1007.36 1007.98 1008.48 1009.22 1009.87 1010.47 1011.07 1011.63 1012.10 1012.26 1012.38 1012.55 1012.72 1013.01 1013.58 1014.09 1014.73 1015.20 1015.54 1016.07 1016.62 1017.03 1017.49 1017.75 1018.21 1018.44 1018.48 1018.78 1019.12 1019.30 1019.36 1019.20 1019.23 1019.61 1019.76 1019.86 1019.91
1003.45 1004.01 1004.44 1004.87 1005.47 1006.22 1006.85 1007.49 1008.17 1008.73 1009.43 1010.14 1010.85 1011.45 1011.86 1012.19 1012.37 1012.59 1012.95 1013.04 1013.29 1013.73 1014.24 1014.66 1015.06 1015.70 1016.10 1016.50 1016.90 1017.26 1017.60 1017.93 1018.29 1018.24 1018.20 1018.71 1018.85 1018.89 1018.94 1019.09 1019.25 1019.49 1019.69
1002.69 1003.27 1003.80 1004.34 1004.86 1005.65 1006.39 1007.03 1007.80 1008.50 1008.99 1009.67 1010.41 1011.02 1011.39 1012.02 1012.07 1012.40 1012.55 1012.96 1013.11 1013.54 1013.88 1014.29 1014.66 1015.27 1015.73 1016.12 1016.43 1016.86 1017.15 1017.42 1017.72 1018.19 1017.95 1017.99 1018.21 1018.67 1018.81 1018.82 1018.87 1019.01 1019.19
1001.61 1002.40 1002.87 1003.46 1004.16 1004.91 1005.70 1006.49 1007.26 1008.02 1008.47 1009.08 1009.79 1010.52 1010.96 1011.23 1011.62 1012.08 1012.56 1012.78 1013.12 1013.29 1013.65 1014.12 1014.57 1015.12 1015.53 1015.83 1016.06 1016.40 1016.63 1016.81 1017.06 1017.28 1017.68 1017.98 1018.06 1018.33 1018.73 1018.59 1018.47 1018.64 1018.55
1000.84 1001.50 1002.01 1002.77 1003.41 1004.20 1004.99 1005.82 1006.67 1007.39 1007.90 1008.49 1009.13 1009.83 1010.37 1010.91 1011.49 1011.95 1012.21 1012.54 1012.80 1013.11 1013.39 1013.62 1014.16 1014.56 1015.19 1015.44 1015.49 1015.75 1015.99 1016.14 1016.16 1016.44 1016.86 1017.12 1017.42 1017.42 1017.91 1018.16 1017.90 1017.78 1017.88
999.92 1000.65 1001.24 1001.92 1002.59 1003.29 1004.11 1005.10 1005.98 1006.76 1007.27 1007.82 1008.39 1008.96 1009.63 1010.35 1010.87 1011.27 1011.78 1012.38 1012.70 1012.98 1013.18 1013.40 1013.84 1014.20 1014.61 1014.94 1015.25 1015.40 1015.59 1015.74 1015.81 1015.77 1016.22 1016.35 1016.53 1016.73 1016.92 1017.23 1017.42 1017.46 1017.47
998.75 999.39 1000.02 1000.65 1001.32 1002.17 1003.04 1003.93 1005.06 1005.93 1006.58 1007.26 1007.86 1008.40 1008.96 1009.64 1010.10 1010.60 1011.19 1011.62 1011.78 1012.31 1012.81 1013.20 1013.57 1013.88 1014.17 1014.60 1014.88 1015.06 1015.07 1015.12 1015.21 1015.39 1015.48 1015.57 1015.76 1016.01 1016.07 1016.32 1016.92 1017.17 1017.06
997.89 998.57 999.26 999.95 1000.60 1001.46 1002.22 1002.93 1004.12 1005.12 1005.97 1006.62 1007.32 1007.97 1008.57 1009.13 1009.63 1009.95 1010.34 1010.83 1011.27 1011.77 1012.36 1012.79 1013.31 1013.60 1013.91 1014.17 1014.37 1014.58 1014.65 1014.59 1014.67 1014.84 1014.78 1014.90 1014.93 1014.82 1015.25 1015.32 1015.79 1016.32 1016.83
997.18 998.16 998.72 999.30 1000.09 1000.79 1001.55 1002.48 1003.47 1004.52 1005.34 1006.14 1006.67 1007.29 1007.95 1008.44 1008.94 1009.49 1009.94 1010.33 1010.69 1011.23 1011.83 1012.22 1012.73 1012.99 1013.25 1013.57 1013.93 1014.13 1014.09 1014.19 1014.18 1014.24 1014.26 1014.27 1014.22 1014.18 1014.47 1014.76 1015.03 1015.52 1016.02
996.92 997.51 998.22 998.90 999.73 1000.39 1001.24 1002.27 1003.24 1004.21 1005.07 1005.71 1006.23 1006.84 1007.48 1007.96 1008.42 1008.98 1009.44 1009.83 1010.30 1010.76 1011.27 1011.57 1012.02 1012.40 1012.70 1012.97 1013.27 1013.38 1013.51 1013.68 1013.61 1013.63 1013.68 1013.65 1013.56 1013.67 1013.85 1014.06 1014.46 1014.90 1015.33
996.76 997.53 998.28 998.92 999.70 1000.35 1001.23 1002.02 1002.87 1003.81 1004.52 1005.20 1005.80 1006.38 1006.88 1007.45 1008.01 1008.55 1008.95 1009.33 1009.77 1010.17 1010.55 1011.03 1011.41 1011.75 1012.01 1012.24 1012.56 1012.80 1012.80 1012.95 1013.07 1013.03 1013.12 1012.95 1012.93 1012.98 1012.96 1013.26 1013.80 1014.40 1014.80
996.99 997.55 998.38 999.13 999.73 1000.36 1001.10 1001.87 1002.59 1003.35 1004.18 1004.85 1005.39 1006.00 1006.53 1007.06 1007.53 1008.01 1008.56 1008.95 1009.38 1009.80 1010.14 1010.50 1010.88 1011.17 1011.42 1011.68 1011.93 1012.14 1012.30 1012.35 1012.50 1012.61 1012.61 1012.44 1012.31 1012.21 1012.23 1012.66 1013.35 1014.00 1014.45
997.03 997.79 998.60 999.25 999.91 1000.49 1001.10 1001.84 1002.48 1002.97 1003.74 1004.40 1005.02 1005.65 1006.19 1006.73 1007.19 1007.48 1008.11 1008.62 1009.00 1009.46 1009.85 1010.18 1010.42 1010.70 1010.90 1011.15 1011.37 1011.57 1011.76 1011.84 1012.00 1012.05 1012.05 1011.90 1011.77 1011.79 1011.89 1012.49 1013.25 1013.61 1014.12
997.31 998.16 998.63 999.15 999.97 1000.66 1001.27 1001.82 1002.30 1002.86 1003.54 1004.11 1004.73 1005.36 1005.84 1006.28 1006.80 1007.29 1007.63 1008.08 1008.51 1008.88 1009.18 1009.52 1009.84 1010.05 1010.23 1010.35 1010.60 1010.94 1011.27 1011.45 1011.52 1011.61 1011.72 1011.72 1011.84 1011.80 1011.90 1012.28 1012.92 1013.27 1013.52
997.20 997.62 998.31 998.84 999.66 1000.38 1001.19 1001.85 1002.35 1002.84 1003.44 1004.06 1004.55 1005.24 1005.79 1006.24 1006.58 1006.89 1007.22 1007.56 1007.98 1008.43 1008.75 1009.04 1009.37 1009.60 1009.64 1009.69 1009.87 1010.21 1010.70 1011.01 1011.32 1011.58 1011.74 1011.78 1011.86 1011.95 1012.20 1012.48 1012.77 1012.77 1012.96
997.52 997.81 998.07 998.63 999.19 999.91 1000.67 1001.62 1002.27 1002.73 1003.42 1004.10 1004.56 1005.06 1005.54 1005.91 1006.16 1006.57 1006.99 1007.39 1007.69 1007.98 1008.29 1008.51 1008.68 1009.01 1009.28 1009.51 1009.65 1010.02 1010.49 1010.83 1011.27 1011.42 1011.69 1011.92 1012.09 1012.30 1012.28 1012.41 1012.75 1013.02 1013.05
997.73 997.80 998.54 998.74 998.99 999.62 1000.38 1001.11 1001.90 1002.70 1003.47 1004.11 1004.64 1005.02 1005.33 1005.73 1006.12 1006.67 1007.06 1007.44 1007.75 1007.98 1008.26 1008.53 1008.58 1008.79 1008.86 1008.93 1009.23 1009.72 1010.21 1010.65 1010.98 1011.16 1011.56 1011.83 1012.18 1012.06 1012.43 1012.56 1012.66 1012.76 1012.78
997.81 997.95 998.29 998.47 998.87 999.50 1000.16 1000.97 1001.83 1002.53 1003.34 1004.06 1004.57 1004.98 1005.33 1005.79 1006.22 1006.55 1006.84 1007.12 1007.53 1007.84 1008.03 1008.03 1008.29 1008.70 1008.91 1008.74 1008.70 1009.03 1009.67 1010.16 1010.47 1010.64 1010.93 1011.40 1011.90 1012.18 1012.33 1012.55 1012.79 1012.69 1012.61
998.12 998.15 998.40 998.27 998.90 999.67 1000.17 1000.97 1001.71 1002.36 1003.09 1003.55 1003.95 1004.40 1004.88 1005.41 1005.85 1006.09 1006.47 1006.82 1007.26 1007.81 1008.20 1008.52 1008.28 1008.32 1008.61 1008.85 1009.10 1009.17 1009.16 1009.60 1009.93 1010.11 1010.38 1010.74 1011.04 1011.50 1012.17 1012.56 1012.77 1012.86 1012.66
998.10 998.65 999.00 999.43 999.93 999.91 1000.17 1000.95 1001.61 1002.02 1002.22 1002.80 1003.34 1003.90 1004.24 1004.84 1005.30 1005.78 1006.28 1006.74 1007.47 1008.07 1008.53 1008.41 1008.15 1008.40 1008.49 1008.77 1008.81 1009.17 1009.43 1009.34 1009.48 1009.70 1009.94 1010.16 1010.55 1011.08 1011.48 1011.84 1012.24 1012.35 1012.27
998.57 999.26 999.80 1000.30 1000.59 1000.77 1001.03 1001.64 1002.08 1001.76 1001.93 1002.25 1002.84 1003.46 1003.94 1004.49 1004.85 1005.33 1005.96 1006.54 1006.71 1007.43 1007.97 1008.75 1008.70 1008.98 1008.68 1008.79 1009.00 1008.99 1009.13 1009.07 1009.42 1009.53 1009.47 1009.60 1009.91 1010.44 1010.96 1011.52 1011.73 1011.81 1011.98
999.48 999.59 1000.32 1000.99 1001.46 1001.64 1001.93 1002.29 1002.69 1002.40 1002.31 1002.67 1003.16 1003.57 1003.95 1004.46 1005.00 1005.61 1006.30 1006.84 1006.85 1007.16 1007.42 1008.10 1008.03 1007.93 1008.50 1009.01 1009.20 1008.91 1008.82 1008.88 1009.15 1009.27 1009.28 1009.22 1009.44 1010.00 1010.49 1011.01 1011.41 1011.72 1011.89
999.84 1000.11 1000.92 1001.68 1002.15 1002.28 1002.51 1002.75 1002.91 1003.06 1003.17 1003.39 1003.66 1004.00 1004.46 1004.92 1005.16 1005.59 1006.17 1006.58 1006.65 1006.95 1007.10 1007.73 1007.83 1008.04 1007.72 1007.75 1008.21 1009.14 1009.21 1009.23 1009.21 1009.17 1009.11 1009.22 1009.48 1010.12 1010.45 1011.00 1011.27 1011.49 1011.80
1000.24 1000.82 1001.48 1002.04 1002.42 1002.61 1002.92 1003.05 1003.19 1003.31 1003.56 1003.78 1004.09 1004.34 1004.75 1005.12 1005.51 1005.65 1005.87 1006.29 1006.61 1006.88 1007.14 1007.19 1007.36 1007.58 1007.53 1008.41 1008.49 1008.41 1008.59 1008.72 1008.86 1009.29 1009.40 1009.43 1009.94 1010.22 1010.57 1011.00 1011.04 1011.30 1011.42
1001.10 1001.52 1001.98 1002.44 1002.71 1002.94 1003.21 1003.31 1003.39 1003.61 1003.86 1004.29 1004.61 1004.67 1004.81 1005.27 1005.52 1005.83 1006.21 1006.34 1006.52 1006.67 1006.82 1006.76 1006.84 1007.17 1007.42 1007.81 1007.67 1007.37 1007.58 1007.88 1008.05 1008.72 1009.07 1009.31 1009.65 1009.84 1009.96 1010.31 1010.61 1010.82 1011.03
Wind_Speed
9 13 12 10 9 9 13 12 12 14 10 5 6 3 4 3 3 4 8 10 7 8 7 5 5 4 4 4 6 4 4 2 3 3 1 3 4 4 4 5 5 8 9
12 13 12 11 10 10 12 10 11 13 11 9 7 4 4 3 3 4 7 10 10 8 7 6 5 6 4 5 5 5 3 3 4 3 1 2 1 4 6 5 7 8 7
17 15 15 13 11 12 11 12 10 11 9 10 6 2 3 2 2 2 3 7 10 9 8 7 6 6 5 4 5 5 6 4 4 5 4 3 3 2 3 7 7 9 7
16 13 16 14 16 12 12 14 13 11 8 9 10 7 6 4 4 4 4 6 7 7 7 7 6 6 4 5 4 5 5 4 4 2 4 2 3 3 1 3 6 7 9
19 17 16 16 16 14 15 13 15 13 12 11 8 8 6 4 4 3 6 7 6 7 7 7 6 5 4 4 6 4 5 5 4 3 3 4 3 4 3 3 4 4 6
18 18 16 13 14 16 14 15 16 16 15 13 14 9 9 7 5 5 5 6 7 6 7 8 7 7 6 6 5 6 5 4 4 4 4 4 4 4 6 3 3 8 4
18 17 17 14 15 16 18 16 17 16 17 16 15 16 10 10 9 7 5 8 5 4 8 6 7 6 5 5 5 5 5 6 4 5 5 6 6 6 3 4 4 3 3
17 18 19 17 18 16 20 17 19 17 17 16 15 13 14 7 7 6 5 6 7 7 6 8 6 6 6 6 5 5 5 6 5 7 6 5 6 6 6 5 5 1 3
19 18 16 16 15 15 17 19 19 17 17 16 12 11 11 11 8 8 6 6 7 7 9 9 8 9 9 10 7 6 7 5 5 6 7 6 4 7 6 4 4 5 4
13 15 15 13 13 13 10 14 16 17 16 15 12 10 10 9 7 7 7 7 6 7 8 9 11 10 8 8 8 7 5 6 5 5 6 5 6 7 5 5 6 4 4
11 15 9 10 13 12 11 12 13 14 13 11 11 8 9 7 6 6 6 7 6 7 8 8 8 7 8 8 8 7 6 7 6 5 6 8 6 5 5 6 4 5 4
11 10 10 11 13 11 12 11 11 13 12 9 8 9 8 8 8 7 8 7 7 7 8 8 8 7 7 7 7 7 7 5 6 6 6 7 5 7 8 7 6 8 6
10 10 10 9 10 9 10 11 9 10 11 9 8 9 9 10 9 8 8 7 7 6 7 8 7 7 7 6 6 6 6 6 6 6 6 7 6 7 4 4 5 8 6
10 8 10 9 9 8 10 9 9 9 8 10 8 8 9 9 8 8 8 7 7 7 7 8 7 7 7 7 6 6 6 6 4 1 4 5 5 4 7 9 7 7 7
9 9 9 10 9 9 8 8 8 8 7 8 8 10 9 8 8 8 8 8 8 7 7 7 7 8 8 7 8 7 7 6 5 3 3 4 5 5 5 8 7 8 5
9 9 12 13 13 12 9 8 8 7 6 7 7 9 9 8 8 9 10 9 9 8 7 8 8 8 7 10 13 9 6 6 6 5 3 4 7 10 11 9 5 5 7
8 6 13 14 12 12 11 8 8 7 7 7 6 7 8 8 7 10 8 8 8 8 7 7 7 8 7 8 9 13 6 6 5 5 5 5 4 6 8 10 12 8 7
8 7 4 7 10 11 10 9 8 8 7 7 5 6 7 6 6 7 7 5 4 5 6 6 7 6 6 11 9 12 7 6 6 6 6 5 6 7 7 5 5 6 6
5 4 2 7 7 12 11 11 8 9 8 7 6 6 7 6 5 6 7 5 5 4 4 3 6 6 5 10 13 11 6 6 7 7 7 7 6 7 9 6 5 5 5
3 6 7 7 9 7 10 11 9 9 9 9 9 8 8 7 7 7 7 5 4 4 3 5 6 7 7 9 8 7 4 6 5 6 7 12 9 14 11 6 6 5 5
10 9 10 11 9 7 8 11 11 12 13 11 10 8 8 9 8 7 5 5 2 2 5 6 6 6 7 8 12 11 4 4 4 5 5 6 13 13 14 11 6 6 5
10 10 11 11 11 11 10 8 6 3 6 8 8 8 7 6 6 7 3 8 11 6 4 3 3 4 8 8 11 12 11 6 4 3 4 5 12 13 14 11 8 9 5
7 8 11 10 8 8 8 9 6 7 7 4 4 5 6 3 4 6 8 6 8 5 5 3 5 4 1 4 10 13 14 9 5 3 4 9 12 12 10 11 10 7 3
7 7 9 8 7 7 8 6 6 6 7 7 7 6 6 5 5 5 5 4 5 4 4 5 3 3 4 6 5 5 5 3 4 3 3 3 6 7 5 5 5 4 4
8 8 8 7 7 7 7 6 6 6 6 7 4 4 5 5 4 3 4 4 2 2 4 4 5 5 3 4 5 7 6 7 7 3 2 3 3 4 4 3 4 4 4
6 7 7 7 7 8 7 6 7 6 6 6 4 3 3 4 5 4 3 3 9 9 11 10 5 3 3 3 8 8 13 7 12 5 3 3 4 5 5 5 5 5 7
Wind_Direction
178 168 165 160 156 143 153 166 148 163 160 161 167 157 197 208 233 155 156 154 148 148 155 157 151 153 172 161 163 149 177 193 164 117 276 253 227 208 204 170 175 195 210
167 170 169 166 161 162 161 162 158 153 167 171 174 167 166 196 196 167 163 156 155 154 162 162 164 162 171 178 175 178 148 181 182 144 135 202 262 211 207 186 191 196 203
174 169 176 172 167 170 164 168 165 166 159 168 164 159 138 116 158 161 153 167 164 166 163 172 162 169 174 184 178 180 181 164 200 207 159 159 216 172 169 210 200 194 208
172 171 175 179 179 174 172 165 168 174 165 154 175 182 190 174 197 182 161 159 158 165 164 164 159 171 176 194 189 171 190 173 171 205 241 241 152 184 231 201 209 190 202
172 178 182 182 182 179 177 167 173 177 178 185 166 178 183 181 186 170 156 170 164 164 152 158 168 185 186 192 192 214 215 193 161 170 146 212 224 235 241 246 193 203 205
172 182 185 178 182 184 176 175 174 181 183 182 193 182 180 182 187 199 171 173 177 172 176 169 180 188 188 194 197 195 212 228 217 176 177 178 173 206 211 212 213 205 206
173 179 182 181 186 181 185 180 179 186 186 190 192 200 190 185 199 205 178 173 169 181 190 170 177 178 185 203 215 217 219 220 211 204 192 203 208 218 203 177 212 179 208
176 181 185 184 184 184 182 179 184 186 188 190 197 199 205 198 205 205 170 183 183 181 172 189 189 180 189 206 221 226 219 213 214 231 212 197 210 212 212 198 164 243 198
178 183 181 184 183 180 179 183 179 186 187 192 192 195 192 204 199 202 190 172 188 178 192 192 207 207 208 206 200 220 229 223 222 229 222 214 209 224 212 186 166 165 178
172 170 180 174 169 166 158 169 168 176 180 184 189 191 185 195 182 174 189 192 195 180 170 189 197 195 192 199 204 218 217 227 233 224 226 231 230 215 208 198 183 177 160
154 166 160 148 155 149 145 143 152 160 169 175 184 171 184 187 172 178 176 187 182 178 180 176 180 190 196 204 203 213 215 222 231 230 226 242 234 221 212 210 163 191 165
121 132 146 142 151 146 150 151 148 158 166 166 165 179 168 162 171 169 175 178 182 178 180 178 187 198 212 203 205 211 235 222 232 239 241 249 244 228 212 200 190 179 157
134 126 122 138 140 139 144 151 145 150 160 168 164 161 162 169 172 173 171 176 180 181 181 182 191 201 210 206 205 208 220 222 238 251 253 253 235 241 202 154 133 128 140
146 139 139 141 137 139 144 142 147 152 159 157 163 158 164 168 165 170 167 174 179 179 181 194 194 200 200 206 213 209 213 219 190 165 291 271 228 207 132 124 138 139 133
144 145 151 149 141 139 139 142 148 156 152 160 165 162 163 161 168 172 176 178 180 192 195 185 191 198 202 207 195 197 206 180 159 120 46 83 61 94 127 139 156 140 132
177 157 162 154 150 153 152 150 152 156 145 166 167 154 161 170 177 179 188 183 186 195 191 187 194 204 216 214 201 183 175 166 166 158 128 124 122 112 119 116 135 168 149
92 136 161 159 153 152 148 152 151 151 146 158 158 152 162 175 175 178 180 191 188 187 192 197 190 194 204 241 214 185 167 162 184 161 154 167 159 142 137 139 133 121 98
74 64 135 164 156 150 150 145 141 144 141 149 143 150 164 173 167 165 186 197 197 198 194 207 202 199 204 201 196 174 163 170 184 175 177 176 176 171 163 161 168 175 167
75 67 7 170 152 149 152 152 143 146 145 159 167 168 175 186 192 175 177 173 175 187 214 191 193 197 218 197 176 159 166 179 194 192 185 181 182 198 175 160 181 196 205
104 98 34 69 111 133 144 145 152 153 165 175 182 181 177 176 184 178 180 179 171 196 214 242 236 217 202 206 208 187 171 185 195 202 195 193 186 178 182 182 177 190 225
89 78 69 68 60 56 130 151 160 176 183 183 179 181 179 171 184 185 182 176 183 345 306 284 282 261 204 206 208 205 211 183 200 198 194 199 202 185 185 187 188 205 195
91 79 73 63 47 44 70 63 57 274 185 175 163 168 177 180 193 191 146 97 113 145 145 279 278 305 296 232 213 209 210 148 167 213 214 211 196 186 189 188 190 174 146
86 95 94 79 57 53 63 67 31 28 42 120 157 162 173 173 70 99 137 157 164 178 176 198 223 172 116 297 262 223 221 196 172 172 255 270 206 193 189 188 173 162 163
112 90 104 102 85 76 59 67 55 57 54 65 73 82 97 107 112 130 153 205 198 178 152 214 185 211 163 205 217 227 258 269 176 171 146 147 151 178 150 133 167 186 198
84 84 100 113 115 99 83 62 65 55 63 70 80 117 129 130 146 153 161 179 270 174 193 205 189 188 166 223 229 208 213 215 218 186 124 113 127 155 163 193 202 205 212
105 96 89 100 94 102 95 81 67 61 58 54 49 44 109 157 164 164 187 227 231 197 201 195 175 231 223 334 301 277 236 219 170 174 182 179 179 182 181 183 199 204 212